Weather History for Kaneohe MCBH, HI

Change the Weather History Date:

Friday, December 9, 2011

  Actual Average Record
Temperature  
Mean Temperature 74 °F -  
Max Temperature 78 °F 76 °F 82 °F (2014)
Min Temperature 69 °F 68 °F 64 °F (2014)
Cooling Degree Days 8    
Growing Degree Days 24 (Base 50)    
Moisture  
Dew Point 63 °F    
Average Humidity 70    
Maximum Humidity 84    
Minimum Humidity 60    
Precipitation  
Precipitation 0.04 in - - ()
Sea Level Pressure  
Sea Level Pressure 30.05 in    
Wind  
Wind Speed 10 mph (ENE)    
Max Wind Speed 16 mph    
Max Gust Speed 23 mph    
Visibility 10 miles    
Events Rain    
Averages and records for this station are not official NWS values.
T = Trace of Precipitation, MM = Missing Value Source: NWS Daily Summary

Daily Weather History Graph

Daily Weather History Graph

Search for Another Location

Airport:

Trip Planner

Search our weather history database for the weather conditions in past years. The results will help you decide how hot, cold, wet, or windy it might be!

Date:

Astronomy

Dec. 09, 2011 Rise Set
Actual Time 6:57 AM HST 5:49 PM HST
Civil Twilight 6:33 AM HST 6:13 PM HST
Nautical Twilight 6:05 AM HST 6:41 PM HST
Astronomical Twilight 5:38 AM HST 7:08 PM HST
Moon 5:23 PM HST (12/9) 6:14 AM HST (12/9)
Length of Visible Light 11h 40m
Length of Day
10h 51m
Full, 100% of the Moon is Illuminated
Dec 9
Full
Dec 10
Full
Dec 17
Last Quarter
Dec 24
New
Dec 31
First Quarter

Hourly Weather History & Observations

Time (HST) Temp. Dew Point Humidity Pressure Visibility Wind Dir Wind Speed Gust Speed Precip Events Conditions
12:57 AM 73.0 °F 64.0 °F 73% 30.06 in 10.0 mi ENE 8.1 mph 17.3 mph N/A   Partly Cloudy
1:57 AM 73.0 °F 64.9 °F 76% 30.05 in 10.0 mi ENE 9.2 mph 17.3 mph N/A   Mostly Cloudy
2:57 AM 73.0 °F 64.0 °F 73% 30.04 in 10.0 mi ENE 9.2 mph 18.4 mph 0.00 in   Partly Cloudy
3:57 AM 71.1 °F 64.0 °F 78% 30.05 in 10.0 mi ENE 11.5 mph 21.9 mph 0.00 in Rain Light Rain
4:57 AM 69.1 °F 64.0 °F 84% 30.05 in 10.0 mi NNE 6.9 mph - 0.00 in Rain Light Rain
5:57 AM 72.0 °F 64.9 °F 78% 30.04 in 10.0 mi NE 12.7 mph - 0.01 in   Overcast
6:57 AM 71.1 °F 64.0 °F 78% 30.06 in 10.0 mi ENE 9.2 mph 16.1 mph N/A   Partly Cloudy
7:57 AM 73.0 °F 64.0 °F 73% 30.07 in 10.0 mi East 11.5 mph 17.3 mph N/A   Mostly Cloudy
8:57 AM 75.0 °F 62.1 °F 64% 30.08 in 10.0 mi ENE 10.4 mph 18.4 mph N/A   Clear
9:57 AM 75.0 °F 64.0 °F 69% 30.09 in 10.0 mi ENE 12.7 mph 20.7 mph N/A   Partly Cloudy
10:57 AM 77.0 °F 62.1 °F 60% 30.07 in 10.0 mi ENE 9.2 mph 17.3 mph N/A   Clear
11:57 AM 78.1 °F 64.0 °F 62% 30.06 in 10.0 mi ENE 11.5 mph 20.7 mph N/A   Scattered Clouds
12:57 PM 78.1 °F 64.0 °F 62% 30.03 in 10.0 mi ENE 10.4 mph 17.3 mph N/A   Partly Cloudy
1:57 PM 75.9 °F 64.9 °F 69% 30.00 in 10.0 mi ENE 12.7 mph 20.7 mph N/A   Mostly Cloudy
2:57 PM 77.0 °F 63.0 °F 62% 29.99 in 10.0 mi ENE 10.4 mph - N/A   Partly Cloudy
3:57 PM 75.9 °F 63.0 °F 64% 30.00 in 10.0 mi ENE 10.4 mph 18.4 mph N/A   Partly Cloudy
4:57 PM 75.0 °F 64.0 °F 69% 30.01 in 10.0 mi ENE 11.5 mph 18.4 mph N/A   Partly Cloudy
5:57 PM 73.9 °F 63.0 °F 68% 30.02 in 10.0 mi ENE 9.2 mph 18.4 mph N/A   Scattered Clouds
6:57 PM 73.4 °F 62.6 °F 69% 30.05 in 10.0 mi ENE 10.4 mph 21.9 mph N/A   Clear
7:57 PM 73.0 °F 62.1 °F 68% 30.05 in 10.0 mi ENE 10.4 mph 23.0 mph N/A   Partly Cloudy
8:57 PM 73.0 °F 62.1 °F 68% 30.05 in 10.0 mi ENE 12.7 mph 20.7 mph N/A   Scattered Clouds
9:57 PM 73.0 °F 62.1 °F 68% 30.05 in 10.0 mi NE 16.1 mph 21.9 mph N/A   Partly Cloudy
10:57 PM 73.0 °F 63.0 °F 71% 30.06 in 10.0 mi ENE 6.9 mph 20.7 mph N/A   Scattered Clouds
11:57 PM 72.0 °F 63.0 °F 73% 30.06 in 10.0 mi East 15.0 mph 23.0 mph 0.03 in   Mostly Cloudy